Regional Weather Roundup
Issued by NWS

Home | Current Version | Previous Version | Graphics & Text | Print | Product List | Glossary On
Versions: 1 2 3 4 5 6 7 8 9 10 11 12 13 14 15 16 17 18 19 20 21 22 23 24 25 26 27 28 29 30 31 32 33 34 35 36 37 38 39 40 41 42 43 44 45 46 47 48 49 50
016
ASUS43 KLMK 200102
RWRKY
KENTUCKY REGIONAL WEATHER ROUNDUP
NATIONAL WEATHER SERVICE LOUISVILLE KY
800 PM EST SUN NOV 19 2017

NOTE "FAIR" INDICATES FEW OR NO CLOUDS BELOW 12,000 FEET
WITH NO SIGNIFICANT WEATHER AND/OR OBSTRUCTIONS TO VISIBILITY.

KYZ001>023-026-027-061>063-070>075-200200-
WESTERN AND SOUTH CENTRAL KENTUCKY

CITY           SKY/WX    TMP DP  RH WIND       PRES   REMARKS
PADUCAH        CLEAR     32  23  69 CALM      30.21F
HENDERSON      CLEAR     33  23  66 NW3       30.22R
OWENSBORO      CLEAR     33  23  66 W5        30.21S WCI  29
HOPKINSVILLE   CLEAR     38  20  49 CALM      30.20R
BOWLING GREEN  CLEAR     37  24  59 CALM      30.22R
GLASGOW        NOT AVBL
$$

KYZ024-025-028>034-038-045-046-053-200200-
NORTH CENTRAL KENTUCKY

CITY           SKY/WX    TMP DP  RH WIND       PRES   REMARKS
LOUISVILLE/SDF PTCLDY    34  23  64 W6        30.17R WCI  29
LOUISVILLE/LOU CLEAR     35  25  66 W3        30.18R
FORT KNOX      CLEAR     30  22  74 W5        30.15F WCI  25
$$

KYZ035>037-039>044-047>052-055>060-089>105-200200-
NORTHEAST KENTUCKY

CITY           SKY/WX    TMP DP  RH WIND       PRES   REMARKS
LEXINGTON      PTCLDY    31  25  78 W6        30.17R WCI  25
COVINGTON      CLEAR     30  25  81 W6        30.13R WCI  24
FRANKFORT      PTCLDY    32  23  69 W3        30.16R
$$

KYZ054-064>069-076>088-106>120-200200-
SOUTHEAST KENTUCKY

CITY           SKY/WX    TMP DP  RH WIND       PRES   REMARKS
JACKSON        PTCLDY    32  25  75 CALM      30.13R
LONDON         CLEAR     34  26  72 SW5       30.16S WCI  30
SOMERSET       PTCLDY    32  27  80 CALM      30.20R
MIDDLESBORO    CLOUDY    38  28  67 NW6       30.17R WCI  34
MONTICELLO     CLEAR     27  25  92 W3        30.20R
$$





USA.gov is the U.S. government's official web portal to all federal, state and local government web resources and services.